Location: Newark
(44.9000°N, 9.6000°E)
Time: 21:07:13
(UTC+00:00)

ISS - Pass Details

Date: 20 January 2020
Orbit: 415 x 422 km, 51.6° (Epoch: 24 February)

Event Time Altitude Azimuth Distance (km) Brightness Sun altitude
Rises 18:51:53 0° 237° (WSW) 2,368 0.9 -27.9°
Reaches altitude 10° 18:53:58 10° 237° (WSW) 1,505 -0.3 -28.3°
Enters shadow 18:54:46 16° 237° (WSW) 1,184 -0.9 -28.4°
